{"data":{"norad_id":58208,"epoch":"2026-05-24T23:25:24.337632Z","epoch_age_seconds":91319,"freshness":"FRESH","line1":"1 58208U 23170C   26144.97597613 -.00000158  00000+0  38040-5 0  9994","line2":"2 58208  43.0036 123.6269 0001447 280.7434  79.3255 15.27578189141969","mean_motion":15.27578189,"eccentricity":0.0001447,"inclination_deg":43.0036,"raan_deg":123.6269,"arg_perigee_deg":280.7434,"mean_anomaly_deg":79.3255,"bstar":3.804e-6,"rev_number":14196,"period_min":94.266860470342,"perigee_km":482.06170441774,"apogee_km":484.04733324329,"semimajor_km":6861.1915188305,"source":"CELESTRAK","updated_at":"2026-05-25T13:38:18.574283Z"}}